FENGYUN 1C DEB, 30464

Orbit data source: Space-Track

FENGYUN 1C DEB, 30464 is space debris in SSO originally from a launch on Mon, 10 May 1999 UTC launched from the Taiyaun Space Center, China (TSC). Fengyun 1C debris stems from the Chinese weather satellite Fengyun-1C, which was intentionally destroyed by a Chinese anti-satellite missile in 2007. This event dramatically increased the amount of space debris, with thousands of trackable fragments posing hazards to satellites and human spaceflight. The Fengyun 1C debris cloud has become a focal point in discussions about space sustainability and the need for international regulations to prevent the creation of new debris.

Loading next visibility...
Identifier
30464, 1999-025AGB
Orbit
SSO
Country
Flag of CNCN / PRC
Related business
Manufacturer
Unknown
Mission
Spacecraft
Bus & Motor
Unknown
Mass
Unknown
Launch date (UTC)
1999-05-10 (27 years ago)
Launch vehicle
Unknown
Launch site
Taiyaun Space Center, China (TSC)
Object type
Payload
Rocket body
Debris
Shape & HBR
Unknown shape, 0.1 m
Radar Cross Section
Small (<0.1 m²)

Expand to show TLE details & history
Last TLE update: 16 hours ago

TLE from 16 hours ago
0 FENGYUN 1C DEB
1 30464U 99025AGB 26106.07305829  .00000112  00000-0  83789-4 0  9994
2 30464  98.8135 159.1036 0108081 267.2890 121.3458 14.10290924988168
Epoch: 2026-04-16T01:45Z
TLE epoch observation values (Epoch: 2026-04-16T01:45:12.236Z)
Latitude
29.34851°
Longitude
-76.3985°
Altitude
903.314 km
Speed
7.382 km/s
True Right ascension
10h 16m 30s
True Declination
29° 12' 17"
Sunlit
Object was in daylight at epoch
Visualization orbit readout
Latitude
Unknown
Longitude
Unknown
Altitude
Unknown
Speed
Unknown
Apparent Right ascension
Unknown
Apparent Declination
Unknown
Sunlit
N/A
Visualization observer readout
Local Sidereal Time
00:51:58
Azimuth
Unknown
Elevation
Unknown
Doppler factor
Unknown
Orbital elements
Apogee altitude
933.735 km
Perigee altitude
777.37 km
Semi-major axis
7,233.689 km
Eccentricity
0.01081
Inclination
98.8135°
RAAN
159.1036°
Arg. of periapsis
267.289°
True anomaly
122.3961°
Mean anomaly
121.3458°
Eccentric anomaly
121.87169°
Mean motion
3.5278 °/min
Orbital period
102.05 mins
BSTAR
0.000083789
Loading maneuver chart data...
Computing Atmospheric mass density...
Loading historical data...
Loading historical data...
Loading historical data...
Loading historical data...
Loading historical data...
Loading historical data...
Loading historical data...

Documentation

Showing up to 5 results
|